Location: Guadanolo
(41.9167°N, 12.9333°E)
Time: 16:03:23
(UTC+00:00)

Cosmos 2181 Rocket - Pass Details

Date: 16 September 2019
Orbit: 953 x 1014 km, 82.9° (Epoch: 13 October)

Event Time Altitude Azimuth Distance (km) Brightness Sun altitude
Exits shadow 19:16:38 14° 178° (S) 2,418 5.8 -22.3°
Maximum altitude 19:22:03 76° 94° (E) 1,010 3.9 -23.2°
Drops below altitude 10° 19:28:21 10° 11° (N) 2,760 6.5 -24.3°
Sets 19:30:54 0° 10° (N) 3,721 7.3 -24.7°
